Location: Klickitat County Star Party
(45.8642°N, 120.6771°W)
Time: 08:15:11
(UTC-07:00)

Envisat - Visible Passes

Search period start: 29 September 2020 00:00
Search period end: 09 October 2020 00:00
Orbit: 764 x 766 km, 98.1° (Epoch: 29 September)

Date Brightness Start Highest point End Pass type
(mag) Time Alt. Az. Time Alt. Az. Time Alt. Az.
29 Sep 6.3 05:44:58 10° ENE 05:47:25 13° E 05:49:51 10° ESE visible
30 Sep 6.3 19:44:08 10° WSW 19:46:44 14° W 19:49:21 10° WNW visible
01 Oct 5.8 06:09:10 10° NE 06:13:10 23° E 06:17:08 10° SE visible
01 Oct 5.4 19:05:09 10° SSW 19:09:33 29° W 19:13:58 10° NW visible
02 Oct 6.7 05:35:07 10° ENE 05:35:53 10° E 05:36:39 10° E visible
03 Oct 6.1 19:31:52 10° SW 19:35:14 18° W 19:38:37 10° NW visible
04 Oct 6.1 05:58:11 10° NE 06:01:41 18° E 06:05:09 10° SE visible
06 Oct 5.2 06:22:52 10° NNE 06:27:21 31° E 06:31:49 10° SSE visible
06 Oct 5.9 19:19:52 10° SW 19:23:45 22° W 19:27:40 10° NW visible
07 Oct 6.3 05:47:24 10° NE 05:50:11 15° E 05:52:56 10° ESE visible
08 Oct 6.4 19:47:16 10° WSW 19:49:30 13° W 19:51:44 10° WNW visible
